Regional Weather Roundup
Issued by NWS

Home | Current Version | Previous Version | Graphics & Text | Print | Product List | Glossary On
Versions: 1 2 3 4 5 6 7 8 9 10 11 12 13 14 15 16 17 18 19 20 21 22 23 24 25 26 27 28 29 30 31 32 33 34 35 36 37 38 39 40 41 42 43 44 45 46 47 48 49 50
482
ASUS45 KCYS 251010
RWRWY

WYOMING REGIONAL WEATHER ROUNDUP
NATIONAL WEATHER SERVICE CHEYENNE WY
400 AM MDT THU MAY 25 2017

NOTE:  "FAIR" INDICATES FEW OR NO CLOUDS BELOW 12,000 FEET
WITH NO SIGNIFICANT WEATHER AND/OR OBSTRUCTIONS TO VISIBILITY.

WYZ001-251100-
YELLOWSTONE NATIONAL PARK

CITY           SKY/WX    TMP DP  RH WIND       PRES   REMARKS
LK YELLOWSTONE   N/A     27  18  69 CALM      29.69R
W YELLOWSTONE  NOT AVBL

$$
WYZ002>013-054>058-071-098>099-251100-
NORTHERN WYOMING

CITY           SKY/WX    TMP DP  RH WIND       PRES   REMARKS
JACKSON        FAIR      45  14  29 W10       29.64R
CODY           FAIR      41  20  43 CALM      29.59R
GREYBULL       FAIR      54  14  20 NW17G29   29.48R
WORLAND        FAIR      51  24  34 W10       29.52R
SHERIDAN       FAIR      46  25  43 NW15      29.56S
BUFFALO        FAIR      45  24  43 N10       29.57F
GILLETTE       FAIR      44  33  65 W3        29.55R
HULETT         FAIR      46  39  76 W5        29.54R
NEWCASTLE      FAIR      45  37  76 NW9       29.53R

$$
WYZ014>020-022>026-101>103-251100-
CENTRAL WYOMING

CITY           SKY/WX    TMP DP  RH WIND       PRES   REMARKS
BIG PINEY      CLOUDY    39  34  82 W8        29.70R WCI  33
PINEDALE       CLOUDY    39  34  81 CALM      29.71R
DUBOIS         FAIR      43  23  45 NW16G22   29.60R
LANDER         FAIR      53  31  42 W16G22    29.54F
RIVERTON       CLOUDY    57  29  34 W17G29    29.52R
CASPER         MOCLDY    48  45  89 E9        29.57F
DOUGLAS        CLOUDY    50  47  89 NW7       29.60R

$$
WYZ021-027>030-104>119-251100-
SOUTHERN WYOMING

CITY           SKY/WX    TMP DP  RH WIND       PRES   REMARKS
EVANSTON       LGT RAIN  42  39  89 N13       29.77R
KEMMERER       DRIZZLE   37  34  87 W16       29.74F WCI  28
ROCK SPRINGS   MOCLDY    44  35  70 N17G25    29.71R
DIXON            N/A     49  46  87 E13G20    29.69S
RAWLINS        CLOUDY    49  44  83 S5        29.65S
LARAMIE        RAIN      49  41  74 S12       29.68F
CHEYENNE       FAIR      57  38  48 NW20G29   29.63R
TORRINGTON     FAIR      55  48  77 N13       29.52R
PINE BLUFFS    PTSUNNY   54  41  62 W6        29.58R

$$




USA.gov is the U.S. government's official web portal to all federal, state and local government web resources and services.